Погода в Щецине

Польша     53°25′58″N   14°32′52″E
темп.,
°C
ветер,
м/с
пор.,
м/с
влажн.,
%
обл.,
%
осадки,
мм/ч
давл.,
гПа
погр.,
м
27 февраля, сб
сб2701:00+4зсз5128919 0.0 1030522
04:00+3зсз4109533 0.0 1030416
07:00+4сз489065 0.0 1032443
10:00+5сз4785100 0.0 1034447
13:00+8ссз476565 0.0 1036673
16:00+7с36640 0.0 1036537
19:00+3сз12880 0.0 103628
22:00+3з259545 0.0 1036148
28 февраля, вс
вс2801:00+2зюз369567 0.0 1036184
04:00+2з389663 0.0 1035271
07:00+1з389632 0.0 1034244
10:00+5зсз368646 0.0 1034355
13:00+8зсз367043 0.0 1034664
16:00+9ссз35700 0.0 1033732
19:00+4ссз11920 0.0 103422
22:00+3зюз11940 0.0 103422
1 марта, пн
пн101:00+2зюз12940 0.0 103522
04:00+1зюз12940 0.0 103422
07:00+1юз22940 0.0 103422
10:00+6зюз24800 0.0 1034272
13:00+10з34660 0.0 1035549
16:00+10з24630 0.0 1033543
19:00+6з23780 0.0 103439
22:00+4з23900 0.0 103450
2 марта, вт
вт201:00+3з22930 0.0 103423
04:00+2з23930 0.0 103336
07:00+2з22930 0.0 103322
10:00+7з23750 0.0 1034252
13:00+11з23560 0.0 1033517
16:00+11з12600 0.0 1032412
19:00+6ююз01770 0.0 103222
22:00+5юз11840 0.0 103222
3 марта, ср
ср301:00+4ю11850 0.0 103122
04:00+3юв11860 0.0 103022
07:00+3ююв228611 0.0 102922
10:00+8ю237241 0.0 1029259
13:00+11ююз236028 0.0 1028534
16:00+12юз246420 0.0 1026757
19:00+7зюз238510 0.0 102455
22:00+6зюз239060 0.0 102363